Weather in Sanya

China     18°15′15″N   109°30′30″E
temp.,
°C
wind,
m/s
gust,
m/s
humid.,
%
clouds,
%
prec.,
mm/h
press.,
hPa
HPBL,
m
25 january, tue
tue2523:00+21ene238827 0.0 1012117
02:00+21ne23915 0.0 1012110
05:00+21ne33885 0.0 1012101
08:00+21ne24853 0.0 1013127
11:00+27e45610 0.0 1014832
14:00+28ese545821 0.0 10111266
17:00+26e55688 0.0 1011789
20:00+22ene36895 0.1 1013282
26 january, wed
wed2623:00+21ene36926 0.0 1013275
02:00+20ne359417 0.1 1013208
05:00+20ne349120 0.1 1012155
08:00+21ne248768 0.1 1014137
11:00+26e45646 0.0 1015918
14:00+27ese55599 0.0 10121239
17:00+26e56678 0.0 1011726
20:00+22ene47872 0.0 1013377
27 january, thu
thu2723:00+21ne35924 0.0 1014225
02:00+20ne36925 0.0 1013206
05:00+20ne34925 0.0 1012136
08:00+21ne23879 0.0 1014121
11:00+26e576311 0.0 10151020
14:00+28e56575 0.0 10121322
17:00+26e686913 0.0 1011804
20:00+22ene49856 0.0 1013490
28 january, fri
fri2823:00+21ne35906 0.0 1014240
02:00+20ne349260 0.0 1013158
05:00+20ne35934 0.0 1012164
08:00+21ne23885 0.0 1013120
11:00+27e466318 0.0 1014986
14:00+27e666325 0.0 10111161
17:00+25e577212 0.0 1010847
20:00+22ene488720 0.0 1012457
29 january, sat
sat2923:00+21ene47915 0.0 1013286
02:00+20ene369365 0.0 1011253
05:00+20ne35936 0.0 1010171
08:00+21ne24855 0.0 1011152
11:00+27e456125 0.0 1012997
14:00+27ese545983 0.0 10091152
17:00+26ese556736 0.0 1008812
20:00+22ene368912 0.0 1011277